NOAA 16 DEB, 41130

Orbit data source: Space-Track

NOAA 16 DEB, 41130 is space debris in SSO originally from a launch on Thu, 21 Sep 2000 UTC launched from the Air Force Western Test Range (AFWTR). Debris objects in space refer to the collection of defunct objects orbiting the Earth. Examples of debris include non-operational satellites, rocket bodies, and fragments generated from explosions, collisions, or faulty payload assembly.

Loading next visibility...
Identifier
41130, 2000-055BM
Orbit
SSO
Country
Flag of USUS
Related business
Manufacturer
Unknown
Mission
Spacecraft
Bus & Motor
Unknown
Mass
Unknown
Launch date (UTC)
2000-09-21 (26 years ago)
Launch vehicle
Unknown
Launch site
Air Force Western Test Range (AFWTR)
Object type
Payload
Rocket body
Debris
Shape & HBR
Unknown shape, 0.1 m
Radar Cross Section
Medium (>0.1 m² and <1 m²)

Expand to show TLE details & history
Last TLE update: 2 days ago

TLE from 2 days ago
0 NOAA 16 DEB
1 41130U 00055BM  26207.17697189  .00004181  00000-0  13057-2 0  9996
2 41130  98.9450   7.1131 0018079  40.4873 319.7656 14.41251599552437
Epoch: 2026-07-26T04:14Z
TLE epoch observation values (Epoch: 2026-07-26T04:14:50.371Z)
Latitude
Longitude
-0.47543°
Altitude
747.466 km
Speed
7.486 km/s
True Right ascension
00h 28m 27s
True Declination
0° 00' 00"
Sunlit
Object was in partial shadow at epoch
Visualization orbit readout
Latitude
Unknown
Longitude
Unknown
Altitude
Unknown
Speed
Unknown
Apparent Right ascension
Unknown
Apparent Declination
Unknown
Sunlit
N/A
Visualization observer readout
Local Sidereal Time
17:39:29
Azimuth
Unknown
Elevation
Unknown
Doppler factor
Unknown
Orbital elements
Apogee altitude
764.398 km
Perigee altitude
738.618 km
Semi-major axis
7,129.645 km
Eccentricity
0.00181
Inclination
98.945°
RAAN
7.1131°
Arg. of periapsis
40.4873°
True anomaly
319.63155°
Mean anomaly
319.7656°
Eccentric anomaly
319.6986°
Mean motion
3.6053 °/min
Orbital period
99.85 mins
BSTAR
0.0013057
Loading maneuver chart data...
Computing Atmospheric mass density...
Loading historical data...
Loading historical data...
Loading historical data...
Loading historical data...
Loading historical data...
Loading historical data...
Loading historical data...

Documentation

Showing up to 5 results
|